User: anonymous   Login
Location: Unspecified
(0.0000°N, 0.0000°E)
Time: 04:42:25
(UTC+00:00)
Language:

Informator 1 - Orbit

View from above orbital plane
View from above orbital plane
View from above satellite
View from above satellite

Ground track
Ground track

The orbit data is extracted from the following two-line orbital elements,

1 21087U 91006A   21342.56754471  .00000042  00000-0  27865-4 0  9993
2 21087  82.9438 269.3292 0035373 164.3203   8.5445 13.75302118548506
Epoch (UTC): 08 December 2021 13:37:15
Eccentricity: 0.0035373
inclination: 82.9438°
perigee height: 954 km
apogee height: 1006 km
right ascension of ascending node: 269.3292°
argument of perigee: 164.3203°
revolutions per day: 13.75302118
mean anomaly at epoch: 8.5445°
orbit number at epoch: 54850

The dashed part of the orbit path shows where the satellite is in the earth's shadow,  

DLR